Weather History for San Jose, Costa Rica

Change the Weather History Date:

Tuesday, June 10, 2014

  Actual Average Record
Temperature  
Mean Temperature 76 °F -  
Max Temperature 83 °F 80 °F 87 °F (1998)
Min Temperature 69 °F 65 °F 62 °F (2008)
Cooling Degree Days 11    
Growing Degree Days 26 (Base 50)    
Moisture  
Dew Point 65 °F    
Average Humidity 72    
Maximum Humidity 94    
Minimum Humidity 25    
Precipitation  
Precipitation 0.00 in 0.32 in - ()
Sea Level Pressure  
Sea Level Pressure 29.96 in    
Wind  
Wind Speed 7 mph ()    
Max Wind Speed 16 mph    
Max Gust Speed -    
Visibility 7.8 miles    
Events Fog , Thunderstorm    
Averages and records for this station are not official NWS values.
T = Trace of Precipitation, MM = Missing Value Source: Averaged Metar Reports

Daily Weather History Graph

Daily Weather History Graph

Search for Another Location

Airport:

Trip Planner

Search our weather history database for the weather conditions in past years. The results will help you decide how hot, cold, wet, or windy it might be!

Date:

Astronomy

Jun. 10, 2014 Rise Set
Actual Time 5:15 AM CST 5:57 PM CST
Civil Twilight 4:52 AM CST 6:20 PM CST
Nautical Twilight 4:25 AM CST 6:47 PM CST
Astronomical Twilight 3:57 AM CST 7:14 PM CST
Moon 3:43 PM CST (6/10) 2:53 AM CST (6/10)
Length of Visible Light 13h 27m
Length of Day
12h 41m
Waxing Gibbous, 92% of the Moon is Illuminated
Jun 10
Waxing Gibbous
Jun 12
Full
Jun 19
Last Quarter
Jun 27
New
Jul 5
First Quarter

Hourly Weather History & Observations

Time (CST) Temp. Heat Index Dew Point Humidity Pressure Visibility Wind Dir Wind Speed Gust Speed Precip Events Conditions
12:00 AM 69 °F - 63 °F 76% 29.84 in 12 mi ENE 6.9 mph - -   Mostly Cloudy
12:00 AM 69.8 °F - 62.6 °F 78% 30.01 in - ENE 6.9 mph - N/A   Clear
1:00 AM 69.8 °F - 62.6 °F 78% 29.98 in - NE 8.1 mph - N/A   Clear
2:00 AM 71.6 °F - 60.8 °F 69% 29.95 in - ENE 9.2 mph - N/A   Clear
3:00 AM 71 °F - 60 °F 61% 29.84 in 12 mi ENE 6.9 mph - -   Mostly Cloudy
3:00 AM 71.6 °F - 60.8 °F 69% 29.95 in - ENE 6.9 mph - N/A   Clear
4:00 AM 73.4 °F - 60.8 °F 65% 29.96 in - East 6.9 mph - N/A   Clear
5:00 AM 71.6 °F - 60.8 °F 69% 29.98 in - ENE 4.6 mph - N/A   Clear
6:00 AM 72 °F - 62 °F 62% 29.86 in 12 mi ENE 4.6 mph - -   Partly Cloudy
6:00 AM 71.6 °F - 60.8 °F 69% 30.00 in - ENE 4.6 mph - N/A   Clear
7:00 AM 75.2 °F - 62.6 °F 65% 30.02 in - ENE 5.8 mph - N/A   Clear
8:00 AM 78.8 °F - 60.8 °F 54% 30.03 in - North 4.6 mph - N/A   Clear
8:35 AM 78.8 °F - 64.4 °F 61% 30.04 in - SW 8.1 mph - N/A   Clear
9:00 AM 80 °F - 65 °F 50% 29.88 in 12 mi WSW 11.5 mph - -   Clear
9:00 AM 80.6 °F 82.3 °F 64.4 °F 58% 30.04 in - WSW 11.5 mph - N/A   Clear
10:00 AM 80.6 °F 82.7 °F 66.2 °F 61% 30.02 in - WSW 11.5 mph - N/A   Clear
11:00 AM 80.6 °F 83.2 °F 68.0 °F 65% 30.01 in 6.2 mi WSW 12.7 mph - N/A   Scattered Clouds
12:00 PM 80 °F - 68 °F 59% 29.86 in 12 mi WSW 16.1 mph - -   Partly Cloudy
12:00 PM 80.6 °F 83.2 °F 68.0 °F 65% 30.01 in 6.2 mi WSW 16.1 mph - N/A   Scattered Clouds
1:00 PM 80.6 °F 83.2 °F 68.0 °F 65% 30.00 in 6.2 mi WSW 16.1 mph - N/A   Mostly Cloudy
2:00 PM 77.0 °F - 68.0 °F 74% 29.98 in 6.2 mi WSW 13.8 mph - N/A   Mostly Cloudy
3:00 PM 75 °F - 70 °F 79% 29.82 in 5 mi SW 6.9 mph - -   Overcast
3:00 PM 77.0 °F - 69.8 °F 78% - 6.2 mi SW 6.9 mph - N/A   Mostly Cloudy
4:00 PM 73.4 °F - 35.6 °F 25% 2.99 in 5.0 mi WSW 9.2 mph - N/A Thunderstorm Thunderstorm
5:00 PM 71.6 °F - 69.8 °F 94% 29.97 in 5.0 mi WSW 10.4 mph - N/A Fog Fog
6:00 PM 72 °F - 68 °F 83% 29.85 in 6 mi South 2.3 mph - -   Overcast
6:00 PM 71.6 °F - 68.0 °F 88% 29.98 in 6.2 mi South 2.3 mph - N/A   Mostly Cloudy
7:00 PM 71.6 °F - 68.0 °F 88% 29.99 in 6.2 mi ENE 2.3 mph - N/A   Mostly Cloudy
8:00 PM 71.6 °F - 69.8 °F 94% 29.99 in - North - - N/A   Mostly Cloudy
9:00 PM 71 °F - 68 °F 86% 29.87 in 12 mi NNE 4.6 mph - -   Scattered Clouds
9:00 PM 71.6 °F - 68.0 °F 88% 30.02 in 6.2 mi NNE 4.6 mph - N/A   Mostly Cloudy
10:00 PM 69.8 °F - 68.0 °F 94% 30.03 in 6.2 mi WNW 2.3 mph - N/A   Scattered Clouds
11:00 PM 69.8 °F - 68.0 °F 94% 30.02 in 6.2 mi NNW 3.5 mph - N/A   Scattered Clouds